Regional Weather Roundup
Issued by NWS

Home | Current Version | Previous Version | Graphics & Text | Print | Product List | Glossary On
Versions: 1 2 3 4 5 6 7 8 9 10 11 12 13 14 15 16 17 18 19 20 21 22 23 24 25 26 27 28 29 30 31 32 33 34 35 36 37 38 39 40 41 42 43 44 45 46 47 48 49 50
000
ASUS45 KCYS 080110
RWRWY

WYOMING REGIONAL WEATHER ROUNDUP
NATIONAL WEATHER SERVICE CHEYENNE WY
700 PM MDT TUE JUL 07 2015

NOTE:  "FAIR" INDICATES FEW OR NO CLOUDS BELOW 12,000 FEET
WITH NO SIGNIFICANT WEATHER AND/OR OBSTRUCTIONS TO VISIBILITY.

WYZ001-080200-
YELLOWSTONE NATIONAL PARK

CITY           SKY/WX    TMP DP  RH WIND       PRES   REMARKS
LK YELLOWSTONE   N/A     67  38  34 VRB3      30.18F
W YELLOWSTONE  NOT AVBL

$$
WYZ002>013-054>058-071-098>099-080200-
NORTHERN WYOMING

CITY           SKY/WX    TMP DP  RH WIND       PRES   REMARKS
JACKSON        PTSUNNY   66  48  52 E14       30.07S
CODY           PTSUNNY   68  46  45 NW9G16    30.08S
GREYBULL       PTSUNNY   81  43  26 NW21      29.95R
WORLAND        RAIN      62  57  83 SE18G26   30.01R
SHERIDAN       FAIR      72  52  49 W9        30.01F
BUFFALO        FAIR      65  51  60 S7        30.09R
GILLETTE       LGT RAIN  63  56  78 N3        30.04F
HULETT         LGT RAIN  63  59  88 S9        30.04F
NEWCASTLE      FAIR      68  54  60 MISG      30.04S

$$
WYZ014>020-022>026-101>103-080200-
CENTRAL WYOMING

CITY           SKY/WX    TMP DP  RH WIND       PRES   REMARKS
BIG PINEY      RAIN      55  51  86 N10       30.22R FOG
PINEDALE       TSTM      59  45  58 S6        30.19F
DUBOIS         FAIR      63  41  45 SE10      30.16F
LANDER         PTSUNNY   67  51  56 SE17G23   30.09R
RIVERTON       HVY RAIN  58  54  86 E7G24     30.12R FOG
CASPER         PTSUNNY   66  50  56 E14       30.08F
DOUGLAS        TSTM      60  57  89 NW8G23    30.08R FOG

$$
WYZ021-027>030-104>119-080200-
SOUTHERN WYOMING

CITY           SKY/WX    TMP DP  RH WIND       PRES   REMARKS
EVANSTON       FAIR      55  50  83 S7        30.16F
KEMMERER       FAIR      63  46  55 S6        30.18S
FORT BRIDGER   CLEAR     61  57  88 S9        30.19F
ROCK SPRINGS   LGT RAIN  56  54  93 NE6       30.17S FOG
DIXON          CLOUDY    60  54  79 NE3       30.16S
RAWLINS        CLOUDY    58  55  90 SE8       30.16S
SARATOGA       RAIN      55  54  94 SE8       30.18F
LARAMIE        RAIN      55  53  93 S12       30.18F FOG
CHEYENNE       LGT RAIN  62  53  72 S13G18    30.13F
TORRINGTON     FAIR      69  55  60 SE12      30.04S
PINE BLUFFS    CLOUDY    66  48  52 S10       30.11S

$$



USA.gov is the U.S. government's official web portal to all federal, state and local government web resources and services.